Regional Weather Roundup
Issued by NWS

Home | Current Version | Previous Version | Text Only | Print | Product List | Glossary On
Versions: 1 2 3 4 5 6 7 8 9 10 11 12 13 14 15 16 17 18 19 20 21 22 23 24 25 26 27 28 29 30 31 32 33 34 35 36 37 38 39 40 41 42 43 44 45 46 47 48 49 50
000
ASCA42 TJSJ 231410
RWRPR
PUERTO RICO/U.S. VIRGIN ISLANDS HOURLY WEATHER ROUNDUP
NATIONAL WEATHER SERVICE SAN JUAN PR
1000 AM AST SUN APR 23 2017

PRZ001>002-007>008-010-231500-
PUERTO RICO

CITY           SKY/WX    TMP DP  RH WIND       PRES   REMARKS
SAN JUAN LMM   PTSUNNY   86  72  62 E15G24    29.99S HX  92
AGUADILLA      SUNNY     82  63  51 SE6       29.98S
CEIBA          MOSUNNY  N/A N/A N/A E13       30.03S
$$

VIZ001>002-231500-
U.S. VIRGIN ISLANDS

CITY           SKY/WX    TMP DP  RH WIND       PRES   REMARKS
CHARLOTTE AMA  MOSUNNY   82  68  61 SE16      30.00R
CHRISTIANSTED  MOSUNNY   82  73  74 E18       30.01S
$$

HOURLY WEATHER ROUNDUP FOR THE NEWS MEDIA

CITY           SKY/WX    TMP DP  RH WIND       PRES   REMARKS
ORLANDO        CLOUDY    78  66  66 CALM      29.89R
NEW YORK       PTSUNNY   55  36  48 N12       30.14S
NEWARK         MOSUNNY   55  36  48 N9        30.13S
CHICAGO        MOSUNNY   55  26  32 W3        30.14F
HARTFORD       SUNNY     52  40  63 VRB6      30.07S
BOSTON         MOSUNNY   51  39  63 NE7       30.10R
DALLAS         SUNNY     55  45  68 NW9       30.17R
PHILADELPHIA   CLOUDY    54  38  54 E10       30.13F
LOS ANGELES    PTCLDY    61  54  77 SW3       29.86R
WASHINGTON DC  CLOUDY    51  39  63 N8        30.14R


USA.gov is the U.S. government's official web portal to all federal, state and local government web resources and services.